Time,TemperatureF,DewpointF,PressureIn,WindDirection,WindDirectionDegrees,WindSpeedMPH,WindSpeedGustMPH,Humidity,HourlyPrecipIn,Conditions,Clouds,dailyrainin,SoftwareType,DateUTC
2013-03-18 00:02:00,37.0,36.0,29.90,ESE,112,0.0,0.0,95,0.24,,,2.62,,2013-03-18 05:02:00,
2013-03-18 00:12:00,37.0,36.0,29.90,ESE,112,0.0,0.0,95,0.24,,,2.62,,2013-03-18 05:12:00,
2013-03-18 00:22:00,37.0,36.0,29.89,ESE,109,0.0,0.0,95,0.20,,,2.66,,2013-03-18 05:22:00,
2013-03-18 00:32:00,38.0,37.0,29.88,East,95,0.0,11.0,95,0.24,,,2.75,,2013-03-18 05:32:00,
2013-03-18 00:43:00,38.0,37.0,29.88,East,95,0.0,11.0,95,0.24,,,2.75,,2013-03-18 05:43:00,
2013-03-18 00:52:00,38.0,37.0,29.84,SE,136,0.0,13.0,95,0.36,,,2.92,,2013-03-18 05:52:00,
2013-03-18 01:02:00,38.0,36.0,29.84,ESE,110,0.0,0.0,94,0.37,,,2.99,,2013-03-18 06:02:00,
2013-03-18 01:12:00,38.0,36.0,29.84,ESE,110,0.0,0.0,94,0.37,,,2.99,,2013-03-18 06:12:00,
2013-03-18 01:22:00,38.0,36.0,29.84,ESE,110,0.0,0.0,94,0.37,,,2.99,,2013-03-18 06:22:00,
2013-03-18 01:32:00,38.0,37.0,29.85,East,93,0.0,0.0,95,0.35,,,3.11,,2013-03-18 06:32:00,
2013-03-18 01:42:00,38.0,37.0,29.85,East,93,0.0,0.0,95,0.35,,,3.11,,2013-03-18 06:42:00,
2013-03-18 01:52:00,38.0,37.0,29.82,ESE,114,0.0,0.0,95,0.24,,,3.17,,2013-03-18 06:52:00,
2013-03-18 02:02:00,38.0,37.0,29.80,East,90,0.0,0.0,95,0.24,,,3.24,,2013-03-18 07:02:00,
2013-03-18 02:12:00,38.0,37.0,29.80,East,90,0.0,0.0,95,0.24,,,3.24,,2013-03-18 07:12:00,
2013-03-18 02:22:00,38.0,37.0,29.80,ESE,123,0.0,0.0,95,0.21,,,3.27,,2013-03-18 07:22:00,
2013-03-18 02:32:00,39.0,38.0,29.77,East,94,0.0,0.0,95,0.21,,,3.32,,2013-03-18 07:32:00,
2013-03-18 02:42:00,39.0,38.0,29.77,East,94,0.0,0.0,95,0.21,,,3.32,,2013-03-18 07:42:00,
2013-03-18 02:53:00,39.0,38.0,29.76,East,81,0.0,0.0,96,0.17,,,3.35,,2013-03-18 07:53:00,
2013-03-18 03:02:00,40.0,39.0,29.73,East,101,0.0,0.0,96,0.12,,,3.36,,2013-03-18 08:02:00,
2013-03-18 03:12:00,40.0,39.0,29.73,East,101,0.0,0.0,96,0.12,,,3.36,,2013-03-18 08:12:00,
2013-03-18 03:22:00,40.0,39.0,29.74,SE,127,0.0,0.0,96,0.10,,,3.35,,2013-03-18 08:22:00,
2013-03-18 03:32:00,40.0,39.0,29.74,SE,126,0.0,0.0,96,0.06,,,3.36,,2013-03-18 08:32:00,
2013-03-18 03:43:00,40.0,39.0,29.74,SE,126,0.0,0.0,96,0.06,,,3.36,,2013-03-18 08:43:00,
2013-03-18 03:52:00,41.0,40.0,29.73,East,98,0.0,0.0,96,0.05,,,3.38,,2013-03-18 08:52:00,
2013-03-18 04:12:00,41.0,40.0,29.72,East,98,0.0,0.0,96,0.05,,,3.39,,2013-03-18 09:12:00,
2013-03-18 04:22:00,41.0,40.0,29.72,SE,145,0.0,0.0,96,0.04,,,3.22,,2013-03-18 09:22:00,
2013-03-18 04:33:00,41.0,40.0,29.70,SE,141,0.0,0.0,96,0.04,,,3.23,,2013-03-18 09:33:00,
2013-03-18 04:43:00,41.0,40.0,29.70,SE,141,0.0,0.0,96,0.04,,,3.23,,2013-03-18 09:43:00,
2013-03-18 04:53:00,41.0,40.0,29.72,SSE,154,0.0,0.0,96,0.02,,,3.23,,2013-03-18 09:53:00,
2013-03-18 05:03:00,41.0,40.0,29.71,SSE,158,0.0,0.0,96,0.01,,,3.23,,2013-03-18 10:03:00,
2013-03-18 05:12:00,41.0,40.0,29.71,SSE,158,0.0,0.0,96,0.01,,,3.23,,2013-03-18 10:12:00,
2013-03-18 05:23:00,41.0,40.0,29.69,SE,130,0.0,0.0,96,0.01,,,3.13,,2013-03-18 10:23:00,
2013-03-18 05:33:00,41.0,40.0,29.70,SE,142,0.0,0.0,96,0.00,,,3.13,,2013-03-18 10:33:00,
2013-03-18 05:42:00,41.0,40.0,29.70,SE,142,0.0,0.0,96,0.00,,,3.13,,2013-03-18 10:42:00,
2013-03-18 05:53:00,41.0,40.0,29.70,SE,144,0.0,2.0,96,0.00,,,3.13,,2013-03-18 10:53:00,
2013-03-18 06:03:00,41.0,40.0,29.69,SSE,167,0.0,0.0,96,0.00,,,3.13,,2013-03-18 11:03:00,
2013-03-18 06:12:00,41.0,40.0,29.69,SSE,167,0.0,0.0,96,0.00,,,3.13,,2013-03-18 11:12:00,
2013-03-18 06:22:00,41.0,40.0,29.69,SE,140,0.0,0.0,96,0.00,,,3.08,,2013-03-18 11:22:00,
2013-03-18 06:32:00,41.0,40.0,29.70,SE,144,0.0,0.0,96,0.00,,,3.08,,2013-03-18 11:32:00,
2013-03-18 06:42:00,41.0,40.0,29.70,SE,144,0.0,0.0,96,0.00,,,3.08,,2013-03-18 11:42:00,
2013-03-18 06:52:00,41.0,40.0,29.72,SE,144,0.0,0.0,96,0.00,,,3.08,,2013-03-18 11:52:00,
2013-03-18 07:02:00,41.0,40.0,29.73,WSW,258,0.0,3.0,96,0.00,,,3.08,,2013-03-18 12:02:00,
2013-03-18 07:12:00,41.0,40.0,29.73,WSW,258,0.0,3.0,96,0.00,,,3.08,,2013-03-18 12:12:00,
2013-03-18 07:22:00,41.0,40.0,29.72,West,260,0.0,0.0,96,0.00,,,2.99,,2013-03-18 12:22:00,
2013-03-18 07:32:00,41.0,40.0,29.72,West,277,2.0,4.0,96,0.00,,,2.99,,2013-03-18 12:32:00,
2013-03-18 07:42:00,41.0,40.0,29.72,West,277,2.0,4.0,96,0.00,,,2.99,,2013-03-18 12:42:00,
2013-03-18 07:52:00,41.0,40.0,29.72,West,280,0.0,4.0,96,0.00,,,2.99,,2013-03-18 12:52:00,
2013-03-18 08:02:00,41.0,40.0,29.73,West,281,0.0,0.0,96,0.00,,,2.99,,2013-03-18 13:02:00,
2013-03-18 08:12:00,41.0,40.0,29.73,West,281,0.0,0.0,96,0.00,,,2.99,,2013-03-18 13:12:00,
2013-03-18 08:22:00,41.0,40.0,29.71,WNW,285,2.0,6.0,96,0.00,,,2.88,,2013-03-18 13:22:00,
2013-03-18 08:32:00,41.0,40.0,29.72,WNW,300,1.0,4.0,96,0.00,,,2.88,,2013-03-18 13:32:00,
2013-03-18 08:42:00,41.0,40.0,29.72,WNW,300,1.0,4.0,96,0.00,,,2.88,,2013-03-18 13:42:00,
2013-03-18 08:52:00,42.0,41.0,29.73,WNW,292,0.0,0.0,96,0.00,,,2.88,,2013-03-18 13:52:00,
2013-03-18 09:02:00,42.0,41.0,29.74,WSW,254,0.0,0.0,97,0.00,,,2.88,,2013-03-18 14:02:00,
2013-03-18 09:12:00,42.0,41.0,29.74,WSW,254,0.0,0.0,97,0.00,,,2.88,,2013-03-18 14:12:00,
2013-03-18 09:22:00,42.0,41.0,29.75,WSW,252,0.0,0.0,96,0.00,,,2.77,,2013-03-18 14:22:00,
2013-03-18 09:32:00,42.0,41.0,29.75,SSW,203,0.0,0.0,96,0.00,,,2.77,,2013-03-18 14:32:00,
2013-03-18 09:42:00,42.0,41.0,29.75,SSW,203,0.0,0.0,96,0.00,,,2.77,,2013-03-18 14:42:00,
2013-03-18 09:52:00,42.0,41.0,29.75,WNW,288,0.0,4.0,96,0.00,,,2.77,,2013-03-18 14:52:00,
2013-03-18 10:02:00,42.0,41.0,29.76,West,281,0.0,7.0,96,0.00,,,2.77,,2013-03-18 15:02:00,
2013-03-18 10:12:00,42.0,41.0,29.76,West,281,0.0,7.0,96,0.00,,,2.77,,2013-03-18 15:12:00,
2013-03-18 10:22:00,43.0,42.0,29.75,WNW,300,3.0,10.0,97,0.00,,,2.66,,2013-03-18 15:22:00,
2013-03-18 10:33:00,43.0,42.0,29.75,West,269,1.0,9.0,96,0.00,,,2.66,,2013-03-18 15:33:00,
2013-03-18 10:43:00,43.0,42.0,29.75,West,269,1.0,9.0,96,0.00,,,2.66,,2013-03-18 15:43:00,
2013-03-18 10:52:00,44.0,43.0,29.77,West,272,1.0,10.0,95,0.00,,,2.66,,2013-03-18 15:52:00,
2013-03-18 11:03:00,44.0,42.0,29.78,West,263,2.0,7.0,94,0.00,,,2.66,,2013-03-18 16:03:00,
2013-03-18 11:12:00,44.0,42.0,29.78,West,263,2.0,7.0,94,0.00,,,2.66,,2013-03-18 16:12:00,
2013-03-18 11:22:00,44.0,42.0,29.78,West,273,2.0,8.0,93,0.00,,,2.54,,2013-03-18 16:22:00,
2013-03-18 11:32:00,44.0,42.0,29.77,WNW,293,7.0,11.0,91,0.00,,,2.54,,2013-03-18 16:32:00,
2013-03-18 11:42:00,44.0,42.0,29.77,WNW,293,7.0,11.0,91,0.00,,,2.54,,2013-03-18 16:42:00,
2013-03-18 11:53:00,44.0,41.0,29.77,WNW,302,6.0,11.0,89,0.00,,,2.54,,2013-03-18 16:53:00,
2013-03-18 12:02:00,44.0,41.0,29.76,WNW,286,5.0,10.0,88,0.00,,,2.54,,2013-03-18 17:02:00,
2013-03-18 12:12:00,44.0,41.0,29.76,WNW,286,5.0,10.0,88,0.00,,,2.54,,2013-03-18 17:12:00,
2013-03-18 12:22:00,44.0,41.0,29.76,WNW,286,5.0,10.0,88,0.00,,,2.54,,2013-03-18 17:22:00,
2013-03-18 12:32:00,44.0,41.0,29.79,West,275,5.0,12.0,88,0.00,,,2.42,,2013-03-18 17:32:00,
2013-03-18 12:42:00,44.0,41.0,29.79,West,275,5.0,12.0,88,0.00,,,2.42,,2013-03-18 17:42:00,
2013-03-18 12:52:00,44.0,41.0,29.79,WNW,284,6.0,12.0,88,0.00,,,2.42,,2013-03-18 17:52:00,
2013-03-18 13:02:00,44.0,41.0,29.79,West,281,5.0,14.0,88,0.00,,,2.42,,2013-03-18 18:02:00,
2013-03-18 13:12:00,44.0,41.0,29.79,West,281,5.0,14.0,88,0.00,,,2.42,,2013-03-18 18:12:00,
2013-03-18 13:22:00,44.0,40.0,29.78,West,263,3.0,13.0,87,0.00,,,2.33,,2013-03-18 18:22:00,
2013-03-18 13:32:00,45.0,41.0,29.78,West,263,5.0,11.0,87,0.00,,,2.33,,2013-03-18 18:32:00,
2013-03-18 13:42:00,45.0,41.0,29.78,West,263,5.0,11.0,87,0.00,,,2.33,,2013-03-18 18:42:00,
2013-03-18 13:52:00,44.0,40.0,29.80,WNW,283,7.0,12.0,87,0.00,,,2.33,,2013-03-18 18:52:00,
2013-03-18 14:02:00,44.0,40.0,29.79,WNW,294,7.0,13.0,86,0.00,,,2.33,,2013-03-18 19:02:00,
2013-03-18 14:12:00,44.0,40.0,29.79,WNW,294,7.0,13.0,86,0.00,,,2.33,,2013-03-18 19:12:00,
2013-03-18 14:22:00,44.0,40.0,29.78,NNW,337,7.0,14.0,86,0.00,,,2.27,,2013-03-18 19:22:00,
2013-03-18 14:32:00,44.0,40.0,29.77,NNW,330,6.0,13.0,87,0.00,,,2.27,,2013-03-18 19:32:00,
2013-03-18 14:42:00,44.0,40.0,29.77,NNW,330,6.0,13.0,87,0.00,,,2.27,,2013-03-18 19:42:00,
2013-03-18 14:52:00,44.0,40.0,29.78,WNW,291,7.0,13.0,85,0.00,,,2.27,,2013-03-18 19:52:00,
2013-03-18 15:02:00,44.0,40.0,29.80,West,266,9.0,15.0,85,0.00,,,2.27,,2013-03-18 20:02:00,
2013-03-18 15:12:00,44.0,40.0,29.80,West,266,9.0,15.0,85,0.00,,,2.27,,2013-03-18 20:12:00,
2013-03-18 15:22:00,43.0,39.0,29.80,West,261,9.0,14.0,86,0.00,,,2.24,,2013-03-18 20:22:00,
2013-03-18 15:32:00,43.0,39.0,29.81,WNW,282,7.0,13.0,86,0.00,,,2.24,,2013-03-18 20:32:00,
2013-03-18 15:42:00,43.0,39.0,29.81,WNW,282,7.0,13.0,86,0.00,,,2.24,,2013-03-18 20:42:00,
2013-03-18 15:52:00,43.0,39.0,29.82,WSW,250,9.0,15.0,85,0.00,,,2.24,,2013-03-18 20:52:00,
2013-03-18 16:02:00,43.0,39.0,29.83,West,275,7.0,13.0,85,0.00,,,2.24,,2013-03-18 21:02:00,
2013-03-18 16:12:00,43.0,39.0,29.83,West,275,7.0,13.0,85,0.00,,,2.24,,2013-03-18 21:12:00,
2013-03-18 16:22:00,43.0,38.0,29.84,West,274,6.0,14.0,84,0.00,,,2.23,,2013-03-18 21:22:00,
2013-03-18 16:32:00,43.0,38.0,29.84,West,280,5.0,11.0,84,0.00,,,2.23,,2013-03-18 21:32:00,
2013-03-18 16:42:00,43.0,38.0,29.84,West,280,5.0,11.0,84,0.00,,,2.23,,2013-03-18 21:42:00,
2013-03-18 16:52:00,43.0,38.0,29.85,NW,309,6.0,11.0,83,0.00,,,2.23,,2013-03-18 21:52:00,
2013-03-18 17:03:00,43.0,38.0,29.85,WNW,301,7.0,12.0,83,0.00,,,2.23,,2013-03-18 22:03:00,
2013-03-18 17:13:00,43.0,38.0,29.85,WNW,301,7.0,12.0,83,0.00,,,2.23,,2013-03-18 22:13:00,
2013-03-18 17:23:00,43.0,38.0,29.85,West,265,3.0,11.0,84,0.00,,,2.18,,2013-03-18 22:23:00,
2013-03-18 17:33:00,43.0,38.0,29.87,WNW,292,6.0,11.0,84,0.00,,,2.18,,2013-03-18 22:33:00,
2013-03-18 17:42:00,43.0,38.0,29.87,WNW,292,6.0,11.0,84,0.00,,,2.18,,2013-03-18 22:42:00,
2013-03-18 17:52:00,43.0,38.0,29.87,West,281,4.0,9.0,84,0.00,,,2.18,,2013-03-18 22:52:00,
2013-03-18 18:02:00,43.0,38.0,29.88,NW,310,3.0,7.0,84,0.00,,,2.18,,2013-03-18 23:02:00,
2013-03-18 18:12:00,43.0,38.0,29.88,NW,310,3.0,7.0,84,0.00,,,2.18,,2013-03-18 23:12:00,
2013-03-18 18:22:00,43.0,38.0,29.88,NW,310,3.0,7.0,84,0.00,,,2.18,,2013-03-18 23:22:00,
2013-03-18 18:32:00,43.0,38.0,29.89,West,276,4.0,8.0,83,0.00,,,2.12,,2013-03-18 23:32:00,
2013-03-18 18:42:00,43.0,38.0,29.89,West,276,4.0,8.0,83,0.00,,,2.12,,2013-03-18 23:42:00,
2013-03-18 18:52:00,43.0,38.0,29.90,NW,306,5.0,10.0,81,0.00,,,2.12,,2013-03-18 23:52:00,
2013-03-18 19:02:00,43.0,38.0,29.90,NW,306,5.0,10.0,81,0.00,,,2.12,,2013-03-19 00:02:00,
2013-03-18 19:12:00,43.0,38.0,29.90,NW,306,5.0,10.0,81,0.00,,,2.12,,2013-03-19 00:12:00,
2013-03-18 19:22:00,43.0,38.0,29.91,WNW,298,3.0,10.0,81,0.00,,,1.92,,2013-03-19 00:22:00,
2013-03-18 19:32:00,43.0,38.0,29.91,WNW,298,3.0,10.0,81,0.00,,,1.92,,2013-03-19 00:32:00,
2013-03-18 19:43:00,43.0,38.0,29.91,WNW,298,3.0,10.0,81,0.00,,,1.92,,2013-03-19 00:43:00,
2013-03-18 19:52:00,42.0,37.0,29.92,WNW,287,3.0,9.0,82,0.00,,,1.92,,2013-03-19 00:52:00,
2013-03-18 20:02:00,41.0,36.0,29.93,West,275,1.0,7.0,82,0.00,,,1.92,,2013-03-19 01:02:00,
2013-03-18 20:12:00,41.0,36.0,29.93,West,275,1.0,7.0,82,0.00,,,1.92,,2013-03-19 01:12:00,
2013-03-18 20:22:00,41.0,36.0,29.93,West,279,0.0,4.0,82,0.00,,,1.92,,2013-03-19 01:22:00,
2013-03-18 20:32:00,40.0,35.0,29.93,WNW,282,0.0,0.0,83,0.00,,,1.84,,2013-03-19 01:32:00,
2013-03-18 20:42:00,40.0,35.0,29.93,WNW,282,0.0,0.0,83,0.00,,,1.84,,2013-03-19 01:42:00,
2013-03-18 20:52:00,39.0,35.0,29.93,WNW,282,0.0,0.0,85,0.00,,,1.84,,2013-03-19 01:52:00,
2013-03-18 21:02:00,38.0,34.0,29.94,WNW,282,0.0,0.0,86,0.00,,,1.84,,2013-03-19 02:02:00,
2013-03-18 21:12:00,38.0,34.0,29.94,WNW,282,0.0,0.0,86,0.00,,,1.84,,2013-03-19 02:12:00,
2013-03-18 21:22:00,37.0,34.0,29.95,West,281,0.0,0.0,88,0.00,,,1.84,,2013-03-19 02:22:00,
2013-03-18 21:32:00,38.0,35.0,29.95,SW,229,0.0,0.0,90,0.00,,,1.71,,2013-03-19 02:32:00,
2013-03-18 21:42:00,38.0,35.0,29.95,SW,229,0.0,0.0,90,0.00,,,1.71,,2013-03-19 02:42:00,
2013-03-18 21:52:00,38.0,35.0,29.95,SW,229,0.0,0.0,88,0.00,,,1.71,,2013-03-19 02:52:00,
2013-03-18 22:02:00,38.0,35.0,29.96,SSW,207,0.0,0.0,90,0.00,,,1.71,,2013-03-19 03:02:00,
2013-03-18 22:12:00,38.0,35.0,29.96,SSW,207,0.0,0.0,90,0.00,,,1.71,,2013-03-19 03:12:00,
2013-03-18 22:22:00,38.0,35.0,29.97,SSW,202,0.0,0.0,89,0.00,,,1.71,,2013-03-19 03:22:00,
2013-03-18 22:33:00,38.0,35.0,29.96,SSW,196,0.0,0.0,89,0.00,,,1.35,,2013-03-19 03:33:00,
2013-03-18 22:43:00,38.0,35.0,29.96,SSW,196,0.0,0.0,89,0.00,,,1.35,,2013-03-19 03:43:00,
2013-03-18 22:53:00,38.0,35.0,29.96,SSW,196,0.0,0.0,89,0.00,,,1.35,,2013-03-19 03:53:00,
2013-03-18 23:03:00,38.0,35.0,29.97,SSW,207,0.0,0.0,90,0.00,,,1.35,,2013-03-19 04:03:00,
2013-03-18 23:13:00,38.0,35.0,29.97,SSW,207,0.0,0.0,90,0.00,,,1.35,,2013-03-19 04:13:00,
2013-03-18 23:23:00,37.0,35.0,29.98,SSW,203,0.0,0.0,91,0.00,,,1.35,,2013-03-19 04:23:00,
2013-03-18 23:33:00,37.0,35.0,29.98,SSW,203,0.0,0.0,91,0.00,,,1.35,,2013-03-19 04:33:00,
2013-03-18 23:43:00,37.0,35.0,29.98,SSW,203,0.0,0.0,91,0.00,,,1.35,,2013-03-19 04:43:00,
2013-03-18 23:52:00,37.0,35.0,29.98,WSW,253,0.0,2.0,91,0.00,,,0.98,,2013-03-19 04:52:00,